Location: ?????
(30.4569°N, 47.8921°E)
Time: 05:27:54
(UTC+00:00)

SL-16 R/B - Pass Details

Date: 07 June 2020
Orbit: 986 x 1006 km, 99.5° (Epoch: 03 July)

Event Time Altitude Azimuth Distance (km) Brightness Sun altitude
Exits shadow 00:10:23 15° 275° (W) 2,405 4.2 -17.8°
Drops below altitude 10° 00:12:57 10° 300° (WNW) 2,745 4.7 -17.4°
Sets 00:16:40 0° 322° (NW) 3,701 5.6 -16.8°
